Weather History for Clarinda, IA

Change the Weather History Date:

Friday, March 2, 2012

  Actual Average Record
Temperature  
Mean Temperature 40 °F -  
Max Temperature 48 °F 38 °F 66 °F (2008)
Min Temperature 33 °F 22 °F -2 °F (2014)
Degree Days  
Heating Degree Days 24    
Moisture  
Dew Point 26 °F    
Average Humidity 66    
Maximum Humidity 93    
Minimum Humidity 30    
Precipitation  
Precipitation 0.00 in - - ()
Sea Level Pressure  
Sea Level Pressure 29.72 in    
Wind  
Wind Speed 12 mph (NNW)    
Max Wind Speed 20 mph    
Max Gust Speed 28 mph    
Visibility 9 miles    
Events Rain    
Averages and records for this station are not official NWS values.
T = Trace of Precipitation, MM = Missing Value Source: NWS Daily Summary

Daily Weather History Graph

Daily Weather History Graph

Search for Another Location

Airport:

Trip Planner

Search our weather history database for the weather conditions in past years. The results will help you decide how hot, cold, wet, or windy it might be!

Date:

Astronomy

Mar. 02, 2012 Rise Set
Actual Time 6:51 AM CST 6:13 PM CST
Civil Twilight 6:24 AM CST 6:40 PM CST
Nautical Twilight 5:52 AM CST 7:12 PM CST
Astronomical Twilight 5:20 AM CST 7:44 PM CST
Moon 12:24 PM CST (3/2) 2:44 AM CST (3/2)
Length of Visible Light 12h 16m
Length of Day
11h 21m
Waxing Gibbous, 66% of the Moon is Illuminated
Mar 2
Waxing Gibbous
Mar 8
Full
Mar 14
Last Quarter
Mar 22
New
Mar 30
First Quarter

Hourly Weather History & Observations

Time (CST) Temp. Windchill Dew Point Humidity Pressure Visibility Wind Dir Wind Speed Gust Speed Precip Events Conditions
12:15 AM 33.8 °F 27.0 °F 32.0 °F 93% 29.67 in 7.0 mi North 8.1 mph - N/A   Clear
12:35 AM 33.8 °F 26.4 °F 30.2 °F 87% 29.68 in 7.0 mi NNW 9.2 mph - N/A   Clear
12:55 AM 33.8 °F 25.8 °F 30.2 °F 87% 29.69 in 7.0 mi North 10.4 mph - N/A   Scattered Clouds
1:15 AM 33.8 °F 27.0 °F 30.2 °F 87% 29.69 in 7.0 mi North 8.1 mph - N/A   Clear
1:35 AM 33.8 °F 27.0 °F 30.2 °F 87% 29.69 in 7.0 mi North 8.1 mph - N/A   Clear
1:55 AM 33.8 °F 24.8 °F 30.2 °F 87% 29.66 in 7.0 mi North 12.7 mph - N/A   Clear
2:15 AM 33.8 °F 24.8 °F 30.2 °F 87% 29.65 in 7.0 mi North 12.7 mph - N/A   Clear
2:35 AM 33.8 °F 25.8 °F 30.2 °F 87% 29.65 in 7.0 mi North 10.4 mph - N/A   Clear
2:55 AM 33.8 °F 24.8 °F 30.2 °F 87% 29.66 in 7.0 mi North 12.7 mph - N/A   Scattered Clouds
3:15 AM 33.8 °F 25.3 °F 30.2 °F 87% 29.65 in 7.0 mi North 11.5 mph - N/A   Scattered Clouds
3:35 AM 33.8 °F 25.3 °F 30.2 °F 87% 29.65 in 7.0 mi North 11.5 mph - N/A   Scattered Clouds
3:55 AM 33.8 °F 25.3 °F 30.2 °F 87% 29.63 in 7.0 mi North 11.5 mph - N/A   Scattered Clouds
4:15 AM 33.8 °F 23.9 °F 30.2 °F 87% 29.63 in 7.0 mi North 15.0 mph - N/A   Clear
4:35 AM 33.8 °F 25.3 °F 30.2 °F 87% 29.63 in 7.0 mi North 11.5 mph - N/A   Mostly Cloudy
4:55 AM 33.8 °F 26.4 °F 30.2 °F 87% 29.64 in 7.0 mi North 9.2 mph - N/A   Mostly Cloudy
5:15 AM 33.8 °F 25.3 °F 30.2 °F 87% 29.63 in 7.0 mi North 11.5 mph - N/A   Mostly Cloudy
5:35 AM 33.8 °F 25.3 °F 30.2 °F 87% 29.63 in 7.0 mi North 11.5 mph - N/A   Mostly Cloudy
5:55 AM 33.8 °F 24.8 °F 30.2 °F 87% 29.62 in 7.0 mi North 12.7 mph - N/A   Overcast
6:15 AM 33.8 °F 25.8 °F 30.2 °F 87% 29.64 in 10.0 mi North 10.4 mph - N/A   Overcast
6:35 AM 33.8 °F 24.8 °F 30.2 °F 87% 29.64 in 10.0 mi North 12.7 mph - N/A   Overcast
6:55 AM 33.8 °F 25.8 °F 30.2 °F 87% 29.62 in 10.0 mi North 10.4 mph - N/A   Overcast
7:15 AM 33.8 °F 26.4 °F 30.2 °F 87% 29.64 in 10.0 mi North 9.2 mph - N/A   Scattered Clouds
7:35 AM 33.8 °F 26.4 °F 30.2 °F 87% 29.65 in 10.0 mi North 9.2 mph - N/A   Mostly Cloudy
7:55 AM 35.6 °F 28.6 °F 30.2 °F 81% 29.66 in 10.0 mi North 9.2 mph - N/A   Mostly Cloudy
8:15 AM 35.6 °F 26.6 °F 30.2 °F 81% 29.66 in 10.0 mi North 13.8 mph - N/A   Mostly Cloudy
8:35 AM 35.6 °F 26.6 °F 30.2 °F 81% 29.67 in 10.0 mi North 13.8 mph - N/A   Mostly Cloudy
8:55 AM 35.6 °F 27.5 °F 30.2 °F 81% 29.67 in 10.0 mi North 11.5 mph 20.7 mph N/A   Light Drizzle
9:15 AM 35.6 °F 27.1 °F 30.2 °F 81% 29.69 in 10.0 mi North 12.7 mph 18.4 mph N/A Rain Light Rain
9:35 AM 35.6 °F 28.0 °F 32.0 °F 87% 29.71 in 10.0 mi North 10.4 mph 16.1 mph N/A Rain Light Rain
10:15 AM 35.6 °F 26.2 °F 28.4 °F 75% 29.72 in 10.0 mi North 15.0 mph 19.6 mph N/A   Scattered Clouds
10:55 AM 39.2 °F 31.2 °F 28.4 °F 65% 29.72 in 10.0 mi North 13.8 mph - N/A   Clear
11:15 AM 39.2 °F 29.8 °F 26.6 °F 61% 29.72 in 10.0 mi North 18.4 mph 23.0 mph N/A   Clear
11:35 AM 41.0 °F 34.7 °F 26.6 °F 57% 29.74 in 10.0 mi NNW 10.4 mph 19.6 mph N/A   Clear
12:15 PM 42.8 °F 37.5 °F 24.8 °F 49% 29.75 in 10.0 mi NW 9.2 mph 19.6 mph N/A   Clear
12:35 PM 42.8 °F 35.4 °F 26.6 °F 53% 29.76 in 10.0 mi NW 15.0 mph 19.6 mph N/A   Clear
12:55 PM 42.8 °F 35.8 °F 26.6 °F 53% 29.76 in 10.0 mi NNW 13.8 mph 19.6 mph N/A   Clear
1:35 PM 44.6 °F 38.1 °F 26.6 °F 49% 29.76 in 10.0 mi WNW 13.8 mph - N/A   Clear
1:55 PM 46.4 °F 39.2 °F 23.0 °F 40% 29.75 in 10.0 mi NNW 18.4 mph 24.2 mph N/A   Clear
2:35 PM 48.2 °F - 21.2 °F 34% 29.76 in 10.0 mi NW 16.1 mph 23.0 mph N/A   Clear
2:55 PM 48.2 °F - 19.4 °F 32% 29.76 in 10.0 mi NW 18.4 mph 25.3 mph N/A   Clear
3:15 PM 48.2 °F - 17.6 °F 30% 29.77 in 10.0 mi NW 17.3 mph 23.0 mph N/A   Clear
3:55 PM 48.2 °F - 19.4 °F 32% 29.78 in 10.0 mi WNW 12.7 mph 25.3 mph N/A   Clear
4:15 PM 48.2 °F - 17.6 °F 30% 29.78 in 10.0 mi WNW 19.6 mph 26.5 mph N/A   Clear
4:35 PM 46.4 °F 40.4 °F 19.4 °F 34% 29.79 in 10.0 mi NW 13.8 mph 24.2 mph N/A   Clear
4:55 PM 46.4 °F 39.5 °F 19.4 °F 34% 29.79 in 10.0 mi WNW 17.3 mph 23.0 mph N/A   Clear
5:15 PM 46.4 °F 39.5 °F 19.4 °F 34% 29.79 in 10.0 mi WNW 17.3 mph 24.2 mph N/A   Clear
5:35 PM 44.6 °F 37.4 °F 21.2 °F 39% 29.80 in 10.0 mi WNW 16.1 mph 20.7 mph N/A   Clear
5:55 PM 44.6 °F 36.9 °F 19.4 °F 37% 29.82 in 10.0 mi WNW 18.4 mph 24.2 mph N/A   Clear
6:15 PM 42.8 °F 35.1 °F 17.6 °F 36% 29.83 in 10.0 mi WNW 16.1 mph 24.2 mph N/A   Clear
6:35 PM 39.2 °F 29.8 °F 17.6 °F 42% 29.85 in 10.0 mi WNW 18.4 mph 27.6 mph N/A   Clear
6:55 PM 39.2 °F 30.8 °F 17.6 °F 42% 29.86 in 10.0 mi WNW 15.0 mph 25.3 mph N/A   Clear
7:15 PM 37.4 °F 28.9 °F 17.6 °F 45% 29.86 in 10.0 mi WNW 13.8 mph 19.6 mph N/A   Clear
7:35 PM 37.4 °F 29.8 °F 19.4 °F 48% 29.86 in 10.0 mi WNW 11.5 mph - N/A   Clear
7:55 PM 35.6 °F 28.0 °F 19.4 °F 52% 29.86 in 10.0 mi NW 10.4 mph - N/A   Clear
8:15 PM 33.8 °F 26.4 °F 21.2 °F 60% 29.88 in 10.0 mi NW 9.2 mph - N/A   Clear
8:35 PM 33.8 °F 25.8 °F 21.2 °F 60% 29.89 in 10.0 mi NW 10.4 mph - N/A   Clear
8:55 PM 33.8 °F 25.8 °F 21.2 °F 60% 29.89 in 10.0 mi NW 10.4 mph - N/A   Clear
9:15 PM 32.0 °F 24.8 °F 21.2 °F 64% 29.90 in 10.0 mi NW 8.1 mph - N/A   Clear
9:35 PM 30.2 °F 23.4 °F 21.2 °F 69% 29.90 in 10.0 mi WNW 6.9 mph - N/A   Clear
9:55 PM 28.4 °F 20.4 °F 21.2 °F 74% 29.90 in 10.0 mi WNW 8.1 mph - N/A   Clear
10:15 PM 30.2 °F 22.6 °F 19.4 °F 64% 29.90 in 10.0 mi WNW 8.1 mph - N/A   Clear
10:35 PM 28.4 °F 20.4 °F 19.4 °F 69% 29.90 in 10.0 mi West 8.1 mph - N/A   Clear
10:55 PM 30.2 °F 20.2 °F 19.4 °F 64% 29.90 in 10.0 mi WNW 12.7 mph - N/A   Clear
11:15 PM 30.2 °F 20.8 °F 19.4 °F 64% 29.90 in 10.0 mi WNW 11.5 mph 17.3 mph N/A   Scattered Clouds
11:35 PM 30.2 °F 20.8 °F 19.4 °F 64% 29.89 in 10.0 mi WNW 11.5 mph - N/A   Scattered Clouds
11:55 PM 28.4 °F 19.7 °F 19.4 °F 69% 29.89 in 10.0 mi WNW 9.2 mph - N/A   Scattered Clouds